This is the latest recevied weather packets stored in our database for station/object KL4TQ. If no packets are shown the sender has not sent any weather packets the latest 10 day(s).
| Time | Temp. | Humidity | Pressure | Rain* | Wind** | Luminosity | Snow |
|---|---|---|---|---|---|---|---|
| 1777769469 | 7.22° C | 59% | 857 hPa | 0 mm | - | 738 W/m² | - |
| 1777769169 | 7.22° C | 60% | 857 hPa | 0 mm | - | 460 W/m² | - |
| 1777768868 | 7.22° C | 60% | 857 hPa | 0.51 mm | - | 511 W/m² | - |
| 1777768569 | 7.78° C | 59% | 857 hPa | 0 mm | - | 309 W/m² | - |
| 1777768268 | 7.78° C | 57% | 857 hPa | 0 mm | - | 486 W/m² | - |
| 1777767969 | 7.78° C | 56% | 857 hPa | 0 mm | - | 653 W/m² | - |
| 1777767669 | 7.78° C | 56% | 857 hPa | 0 mm | - | 647 W/m² | - |
| 1777767368 | 7.78° C | 55% | 857 hPa | 0 mm | - | 403 W/m² | - |
| 1777767069 | 7.78° C | 55% | 857 hPa | 0 mm | - | 362 W/m² | - |
| 1777766769 | 7.78° C | 57% | 857 hPa | 0.76 mm | - | 415 W/m² | - |
| 1777766469 | 7.78° C | 56% | 857 hPa | 0 mm | - | 514 W/m² | - |
| 1777766168 | 7.78° C | 57% | 857 hPa | 1.02 mm | - | 376 W/m² | - |
| 1777765869 | 7.78° C | 56% | 857 hPa | 0 mm | - | 406 W/m² | - |
| 1777765568 | 8.33° C | 52% | 857 hPa | 0 mm | - | 283 W/m² | - |
| 1777765268 | 8.33° C | 52% | 857 hPa | 0 mm | - | 431 W/m² | - |
| 1777764968 | 8.33° C | 51% | 857 hPa | 0 mm | - | 293 W/m² | - |
| 1777764668 | 8.89° C | 52% | 857 hPa | 0 mm | - | 304 W/m² | - |
| 1777764369 | 8.89° C | 49% | 857 hPa | 0 mm | - | 292 W/m² | - |
| 1777764069 | 8.89° C | 48% | 858 hPa | 0 mm | - | 926 W/m² | - |
| 1777763769 | 8.89° C | 48% | 858 hPa | 0 mm | - | 573 W/m² | - |
| 1777763468 | 8.33° C | 48% | 857 hPa | 0 mm | - | 577 W/m² | - |
| 1777763168 | 8.89° C | 47% | 857 hPa | 0 mm | - | 371 W/m² | - |
| 1777762869 | 8.89° C | 46% | 857 hPa | 0 mm | - | 399 W/m² | - |
| 1777762569 | 8.89° C | 46% | 857 hPa | 0 mm | - | 399 W/m² | - |
| 1777762269 | 8.33° C | 47% | 857 hPa | 0 mm | - | 374 W/m² | - |
* Rain latest hour (hover to see other rain measurements)
** Current wind speed in m/s (hover to see current wind gust speed)